FENGYUN 1C DEB, 30443

Orbit data source: Space-Track

FENGYUN 1C DEB, 30443 is space debris in SSO originally from a launch on Mon, 10 May 1999 UTC launched from the Taiyaun Space Center, China (TSC). Fengyun 1C debris stems from the Chinese weather satellite Fengyun-1C, which was intentionally destroyed by a Chinese anti-satellite missile in 2007. This event dramatically increased the amount of space debris, with thousands of trackable fragments posing hazards to satellites and human spaceflight. The Fengyun 1C debris cloud has become a focal point in discussions about space sustainability and the need for international regulations to prevent the creation of new debris.

Loading next visibility...
Identifier
30443, 1999-025AFE
Orbit
SSO
Country
Flag of CNCN / PRC
Related business
Manufacturer
Unknown
Mission
Spacecraft
Bus & Motor
Unknown
Mass
Unknown
Launch date (UTC)
1999-05-10 (27 years ago)
Launch vehicle
Unknown
Launch site
Taiyaun Space Center, China (TSC)
Object type
Payload
Rocket body
Debris
Shape & HBR
Unknown shape, 0.1 m
Radar Cross Section
Small (<0.1 m²)

Expand to show TLE details & history
Last TLE update: 16 hours ago

TLE from 16 hours ago
0 FENGYUN 1C DEB
1 30443U 99025AFE 26073.80690269  .00008682  00000-0  28573-2 0  9998
2 30443  98.8530  28.5941 0028062  62.6119 297.7917 14.38206484987568
Epoch: 2026-03-14T19:21Z
TLE epoch observation values (Epoch: 2026-03-14T19:21:56.392Z)
Latitude
-0.00006°
Longitude
-74.31365°
Altitude
758.062 km
Speed
7.48 km/s
True Right ascension
01h 54m 22s
True Declination
0° 00' 00"
Sunlit
Object was in daylight at epoch
Visualization orbit readout
Latitude
Unknown
Longitude
Unknown
Altitude
Unknown
Speed
Unknown
Apparent Right ascension
Unknown
Apparent Declination
Unknown
Sunlit
N/A
Visualization observer readout
Local Sidereal Time
16:16:54
Azimuth
Unknown
Elevation
Unknown
Doppler factor
Unknown
Orbital elements
Apogee altitude
781.607 km
Perigee altitude
741.536 km
Semi-major axis
7,139.709 km
Eccentricity
0.00281
Inclination
98.853°
RAAN
28.5941°
Arg. of periapsis
62.6119°
True anomaly
297.50676°
Mean anomaly
297.7917°
Eccentric anomaly
297.64928°
Mean motion
3.59768 °/min
Orbital period
100.06 mins
BSTAR
0.0028573
Loading maneuver chart data...
Computing Atmospheric mass density...

Documentation

Showing up to 5 results
|